TimeCDT,TemperatureF,Dew PointF,Humidity,Sea Level PressureIn,VisibilityMPH,Wind Direction,Wind SpeedMPH,Gust SpeedMPH,PrecipitationIn,Events,Conditions,WindDirDegrees,DateUTC
12:15 AM,39.9,30.0,68,30.18,10.0,SSE,9.2,-,N/A,,Clear,160,2013-03-30 05:15:00
12:35 AM,39.4,29.1,67,30.16,10.0,SSE,10.4,-,N/A,,Clear,150,2013-03-30 05:35:00
12:55 AM,38.7,28.6,67,30.16,10.0,SSE,10.4,-,N/A,,Clear,150,2013-03-30 05:55:00
1:15 AM,39.7,29.1,66,30.15,10.0,SSE,10.4,-,N/A,,Clear,150,2013-03-30 06:15:00
1:35 AM,40.1,28.0,62,30.14,10.0,SSE,10.4,-,N/A,,Clear,150,2013-03-30 06:35:00
1:55 AM,40.1,27.9,62,30.13,10.0,SSE,10.4,-,N/A,,Clear,150,2013-03-30 06:55:00
2:15 AM,40.1,27.9,62,30.14,10.0,SSE,12.7,-,N/A,,Clear,150,2013-03-30 07:15:00
2:35 AM,40.1,27.9,62,30.14,10.0,SSE,11.5,-,N/A,,Clear,150,2013-03-30 07:35:00
2:55 AM,39.4,28.0,64,30.13,10.0,SE,11.5,-,N/A,,Clear,140,2013-03-30 07:55:00
3:15 AM,38.7,27.9,65,30.13,10.0,SSE,10.4,-,N/A,,Clear,150,2013-03-30 08:15:00
3:35 AM,37.4,27.5,67,30.12,10.0,South,8.1,-,N/A,,Clear,170,2013-03-30 08:35:00
3:55 AM,38.7,28.4,67,30.11,10.0,South,9.2,-,N/A,,Clear,170,2013-03-30 08:55:00
4:15 AM,38.7,28.9,68,30.10,10.0,South,10.4,-,N/A,,Clear,170,2013-03-30 09:15:00
4:35 AM,37.4,28.8,71,30.09,10.0,South,10.4,-,N/A,,Clear,170,2013-03-30 09:35:00
4:55 AM,37.4,29.3,73,30.08,10.0,South,9.2,-,N/A,,Clear,170,2013-03-30 09:55:00
5:15 AM,37.4,30.0,75,30.06,10.0,South,11.5,16.1,N/A,,Clear,170,2013-03-30 10:15:00
5:35 AM,37.4,30.4,76,30.06,10.0,South,10.4,-,N/A,,Clear,180,2013-03-30 10:35:00
5:55 AM,37.4,31.1,78,30.06,10.0,South,10.4,-,N/A,,Clear,170,2013-03-30 10:55:00
6:15 AM,37.4,31.6,80,30.06,10.0,South,10.4,-,N/A,,Clear,180,2013-03-30 11:15:00
6:35 AM,37.4,32.0,81,30.05,10.0,South,11.5,-,N/A,,Clear,170,2013-03-30 11:35:00
6:55 AM,37.4,32.0,81,30.05,10.0,South,8.1,-,N/A,,Clear,170,2013-03-30 11:55:00
7:15 AM,37.4,31.6,80,30.05,10.0,South,9.2,-,N/A,,Clear,180,2013-03-30 12:15:00
7:35 AM,37.4,31.6,80,30.04,10.0,SSE,11.5,-,N/A,,Clear,160,2013-03-30 12:35:00
7:55 AM,38.3,32.0,78,30.06,7.0,South,9.2,-,N/A,,Scattered Clouds,180,2013-03-30 12:55:00
8:15 AM,38.7,32.2,78,30.05,7.0,South,9.2,-,N/A,,Clear,170,2013-03-30 13:15:00
8:35 AM,38.7,32.4,78,30.04,7.0,South,10.4,-,N/A,,Clear,170,2013-03-30 13:35:00
8:55 AM,39.2,32.5,77,30.04,7.0,South,10.4,-,N/A,,Clear,170,2013-03-30 13:55:00
9:15 AM,40.1,33.4,77,30.03,7.0,South,11.5,-,N/A,,Clear,170,2013-03-30 14:15:00
9:35 AM,40.6,34.3,78,30.03,7.0,South,11.5,-,N/A,Rain,Light Rain,170,2013-03-30 14:35:00
9:55 AM,41.7,35.8,79,30.01,7.0,South,11.5,-,N/A,,Clear,170,2013-03-30 14:55:00
10:15 AM,45.0,37.9,76,30.01,7.0,South,11.5,-,N/A,,Clear,180,2013-03-30 15:15:00
10:35 AM,45.0,38.1,77,30.01,7.0,South,9.2,12.7,N/A,Rain,Light Rain,180,2013-03-30 15:35:00
10:55 AM,43.7,38.8,83,30.01,5.0,South,11.5,-,N/A,,Drizzle,190,2013-03-30 15:55:00
11:15 AM,46.4,41.5,83,29.99,5.0,South,10.4,-,N/A,,Light Drizzle,180,2013-03-30 16:15:00
11:35 AM,47.5,41.9,81,29.98,7.0,South,13.8,-,N/A,Rain,Light Rain,180,2013-03-30 16:35:00
11:55 AM,47.5,41.0,78,29.97,7.0,South,15.0,19.6,N/A,,Clear,190,2013-03-30 16:55:00
12:15 PM,47.5,40.8,78,29.97,7.0,South,11.5,17.3,N/A,,Scattered Clouds,190,2013-03-30 17:15:00
12:35 PM,47.5,41.4,79,29.97,5.0,SSW,12.7,19.6,N/A,,Light Drizzle,200,2013-03-30 17:35:00
12:55 PM,47.7,42.6,83,29.97,5.0,SSW,15.0,19.6,N/A,,Light Drizzle,200,2013-03-30 17:55:00
1:15 PM,48.6,43.0,81,29.96,5.0,SSW,18.4,23.0,N/A,,Light Drizzle,200,2013-03-30 18:15:00
1:35 PM,47.5,41.4,79,29.96,7.0,SSW,18.4,26.5,N/A,,Drizzle,200,2013-03-30 18:35:00
1:55 PM,47.5,40.5,77,29.95,7.0,SSW,19.6,26.5,N/A,Rain,Light Rain,200,2013-03-30 18:55:00
2:15 PM,47.5,40.5,77,29.94,7.0,SSW,18.4,29.9,N/A,Rain,Rain,200,2013-03-30 19:15:00
2:35 PM,47.5,41.9,81,29.93,5.0,South,15.0,19.6,N/A,Rain,Light Rain,180,2013-03-30 19:35:00
2:55 PM,47.5,42.1,82,29.92,10.0,South,12.7,-,N/A,,Overcast,180,2013-03-30 19:55:00
3:15 PM,47.5,41.2,79,29.91,10.0,South,12.7,-,N/A,,Overcast,180,2013-03-30 20:15:00
3:35 PM,47.5,41.7,80,29.91,5.0,South,15.0,23.0,0.01,Rain,Rain,190,2013-03-30 20:35:00
3:55 PM,47.5,42.4,83,29.91,7.0,SSW,15.0,21.9,0.01,,Light Drizzle,200,2013-03-30 20:55:00
4:15 PM,47.5,42.4,83,29.91,7.0,SSW,13.8,19.6,N/A,,Scattered Clouds,210,2013-03-30 21:15:00
4:35 PM,47.5,42.1,82,29.91,7.0,SW,10.4,-,N/A,,Scattered Clouds,230,2013-03-30 21:35:00
4:55 PM,47.5,41.7,80,29.90,7.0,WSW,10.4,-,N/A,,Light Drizzle,240,2013-03-30 21:55:00
5:15 PM,47.5,42.4,83,29.90,5.0,SSW,10.4,17.3,N/A,,Haze,210,2013-03-30 22:15:00
5:35 PM,45.0,41.2,87,29.89,4.0,SSW,8.1,-,N/A,,Overcast,200,2013-03-30 22:35:00
5:55 PM,45.0,41.9,89,29.89,3.0,SSW,6.9,-,N/A,,Overcast,210,2013-03-30 22:55:00
6:15 PM,45.0,42.3,90,29.89,2.0,SSW,5.8,-,N/A,,Overcast,200,2013-03-30 23:15:00
6:35 PM,45.0,42.8,92,29.89,3.0,SW,4.6,-,N/A,,Overcast,220,2013-03-30 23:35:00
6:55 PM,45.0,42.8,92,29.88,3.0,SW,4.6,-,N/A,,Overcast,230,2013-03-30 23:55:00
7:15 PM,45.0,42.8,92,29.88,3.0,WSW,3.5,-,N/A,,Overcast,240,2013-03-31 00:15:00
7:35 PM,45.0,42.8,92,29.88,4.0,Calm,Calm,-,N/A,,Scattered Clouds,0,2013-03-31 00:35:00
7:55 PM,45.0,42.8,92,29.88,3.0,WSW,3.5,-,N/A,,Mist,250,2013-03-31 00:55:00
8:15 PM,42.4,40.5,93,29.88,0.8,Calm,Calm,-,N/A,,Mist,0,2013-03-31 01:15:00
8:35 PM,41.2,39.2,93,29.89,0.2,West,3.5,-,N/A,Fog,Fog,260,2013-03-31 01:35:00
8:55 PM,41.0,39.2,93,29.89,0.2,Calm,Calm,-,N/A,Fog,Fog,0,2013-03-31 01:55:00
9:15 PM,40.1,38.3,93,29.89,0.2,Calm,Calm,-,N/A,Fog,Fog,0,2013-03-31 02:15:00
9:35 PM,40.1,38.3,93,29.90,0.2,WSW,3.5,-,N/A,Fog,Fog,240,2013-03-31 02:35:00
9:55 PM,40.1,38.3,93,29.90,0.2,WSW,4.6,-,N/A,Fog,Fog,240,2013-03-31 02:55:00
10:15 PM,40.1,38.3,93,29.90,0.2,Calm,Calm,-,N/A,Fog,Fog,0,2013-03-31 03:15:00
10:35 PM,40.1,38.5,94,29.90,0.2,Calm,Calm,-,N/A,Fog,Fog,0,2013-03-31 03:35:00
10:55 PM,38.7,37.4,95,29.90,0.2,Calm,Calm,-,N/A,Fog,Fog,0,2013-03-31 03:55:00
11:15 PM,37.6,36.3,95,29.89,0.2,Calm,Calm,-,N/A,Fog,Fog,0,2013-03-31 04:15:00
11:35 PM,37.4,36.0,95,29.89,0.2,Calm,Calm,-,N/A,Fog,Fog,0,2013-03-31 04:35:00
11:55 PM,35.1,33.6,94,29.89,0.2,Calm,Calm,-,N/A,Fog,Fog,0,2013-03-31 04:55:00